K7CTM Weather Reports


Display with metric or nautical units.
time (UTC)temp
F
wind
direction
speed
MPH
gust
MPH
rain 1hr
in
rain 24hr
in
rain mn
in
humidity
%
barometer
mb
20260502163907 60 251 2.0 3.0 0.00 0.00 0.00 35 1028.5
20260502163403 60 233 1.0 1.0 0.00 0.00 0.00 37 1028.3
20260502162901 59 271 2.0 2.0 0.00 0.00 0.00 35 1028.6
20260502162358 58 238 2.0 3.0 0.00 0.00 0.00 36 1028.7
20260502161855 58 229 6.0 6.0 0.00 0.00 0.00 35 1028.6
20260502161351 58 241 2.0 2.0 0.00 0.00 0.00 34 1028.6
20260502160849 57 271 4.0 4.0 0.00 0.00 0.00 35 1028.5
20260502160347 57 302 4.0 4.0 0.00 0.00 0.00 34 1028.7
20260502152322 52 295 3.0 3.0 0.00 0.00 0.00 39 1028.8
20260502151820 52 314 4.0 4.0 0.00 0.00 0.00 39 1028.9
20260502151316 51 271 2.0 2.0 0.00 0.00 0.00 39 1028.9
20260502150814 51 257 4.0 4.0 0.00 0.00 0.00 40 1028.9
20260502150310 51 240 3.0 3.0 0.00 0.00 0.00 44 1028.9
20260502130659 37 199 2.0 2.0 0.00 0.00 0.00 59 1028.6
20260502130156 36 206 2.0 2.0 0.00 0.00 0.00 60 1028.5
20260502123642 35 218 3.0 3.0 0.00 0.00 0.00 61 1028.1
20260502123139 35 238 3.0 3.0 0.00 0.00 0.00 62 1028.1
20260502122635 35 232 2.0 2.0 0.00 0.00 0.00 63 1028.1
20260502122132 35 226 3.0 3.0 0.00 0.00 0.00 63 1028.0
20260502121630 35 232 2.0 3.0 0.00 0.00 0.00 63 1028.1
20260502121127 34 214 1.0 1.0 0.00 0.00 0.00 65 1027.9
20260502120623 34 206 1.0 1.0 0.00 0.00 0.00 66 1027.8
20260502120120 34 230 2.0 2.0 0.00 0.00 0.00 66 1027.8
20260502115618 34 220 3.0 3.0 0.00 0.00 0.00 65 1027.8
20260502115114 34 235 2.0 2.0 0.00 0.00 0.00 65 1027.7
20260502114610 35 241 3.0 3.0 0.00 0.00 0.00 65 1027.7
20260502114108 34 243 4.0 4.0 0.00 0.00 0.00 65 1027.7
20260502113605 34 259 5.0 6.0 0.00 0.00 0.00 67 1027.5
20260502113104 35 253 5.0 6.0 0.00 0.00 0.00 66 1027.3
20260502112601 34 252 6.0 7.0 0.00 0.00 0.00 66 1027.7
20260502112058 35 256 6.0 7.0 0.00 0.00 0.00 65 1027.4
20260502111555 34 251 6.0 7.0 0.00 0.00 0.00 66 1027.8
20260502111053 35 259 6.0 7.0 0.00 0.00 0.00 66 1027.7
20260502110550 34 249 5.0 6.0 0.00 0.00 0.00 66 1027.8
20260502110048 35 251 5.0 6.0 0.00 0.00 0.00 65 1027.7
20260502105545 35 246 6.0 7.0 0.00 0.00 0.00 65 1027.7
20260502105042 35 253 6.0 6.0 0.00 0.00 0.00 65 1027.9
20260502104539 35 256 5.0 6.0 0.00 0.00 0.00 65 1027.8
20260502104037 34 249 5.0 6.0 0.00 0.00 0.00 66 1027.5
20260502103534 35 249 4.0 4.0 0.00 0.00 0.00 65 1027.5
20260502103032 35 246 5.0 6.0 0.00 0.00 0.00 65 1027.7
20260502102528 35 254 3.0 3.0 0.00 0.00 0.00 65 1027.5
20260502102025 36 249 3.0 3.0 0.00 0.00 0.00 63 1027.4
20260502101523 36 250 4.0 4.0 0.00 0.00 0.00 63 1027.4
20260502101022 36 248 3.0 3.0 0.00 0.00 0.00 63 1027.5
20260502100520 37 243 4.0 4.0 0.00 0.00 0.00 62 1027.4
20260502091454 39 235 3.0 3.0 0.00 0.00 0.00 58 1027.5
20260502090951 40 249 4.0 4.0 0.00 0.00 0.00 56 1027.5
20260502090448 41 254 4.0 4.0 0.00 0.00 0.00 53 1027.4
20260502071343 44 228 1.0 2.0 0.00 0.00 0.00 48 1027.9
20260502070841 45 252 0.0 0.0 0.00 0.00 0.00 46 1027.9
20260502070338 46 311 1.0 2.0 0.00 0.00 0.00 44 1027.7
20260502065837 47 235 2.0 2.0 0.00 0.00 0.00 41 1027.8
20260502065335 46 233 1.0 1.0 0.00 0.00 0.00 42 1027.8
20260502064832 47 210 2.0 2.0 0.00 0.00 0.00 42 1027.8
20260502064330 48 222 2.0 2.0 0.00 0.00 0.00 41 1027.7
20260502063827 47 240 2.0 2.0 0.00 0.00 0.00 41 1027.7
20260502063325 48 223 2.0 2.0 0.00 0.00 0.00 41 1027.8
20260502062822 48 219 2.0 2.0 0.00 0.00 0.00 42 1027.9
20260502062320 47 218 1.0 1.0 0.00 0.00 0.00 42 1027.8
20260502061818 47 232 0.0 0.0 0.00 0.00 0.00 42 1027.9
20260502061316 48 229 0.0 0.0 0.00 0.00 0.00 41 1027.9
20260502060811 48 237 0.0 0.0 0.00 0.00 0.00 41 1027.9
20260502060306 47 245 0.0 0.0 0.00 0.00 0.00 44 1027.9
20260502055804 47 241 0.0 0.0 0.00 0.00 0.00 43 1027.8
20260502055305 47 256 0.0 0.0 0.00 0.00 0.00 43 1027.9
20260502054801 48 259 0.0 0.0 0.00 0.00 0.00 42 1027.8
20260502054258 48 247 0.0 0.0 0.00 0.00 0.00 44 1027.9
20260502053756 49 259 1.0 1.0 0.00 0.00 0.00 42 1027.9
20260502053253 50 263 0.0 0.0 0.00 0.00 0.00 40 1028.0
20260502052751 50 272 0.0 0.0 0.00 0.00 0.00 39 1027.8
20260502052249 51 294 1.0 2.0 0.00 0.00 0.00 38 1027.5
20260502051746 51 263 2.0 2.0 0.00 0.00 0.00 38 1027.9
20260502051245 50 241 2.0 2.0 0.00 0.00 0.00 40 1027.8
20260502050741 49 247 2.0 2.0 0.00 0.00 0.00 44 1027.7
20260502050236 50 253 1.0 2.0 0.00 0.00 0.00 43 1027.7
20260502045734 50 235 2.0 2.0 0.00 0.00 0.00 41 1027.9
20260502045231 52 238 2.0 2.0 0.00 0.00 0.00 37 1027.7
20260502044728 51 249 1.0 1.0 0.00 0.00 0.00 36 1027.7
20260502044224 51 242 0.0 0.0 0.00 0.00 0.00 37 1027.8
20260502043721 51 241 0.0 0.0 0.00 0.00 0.00 36 1027.9
20260502043219 53 252 0.0 0.0 0.00 0.00 0.00 35 1027.8
20260502042718 53 308 1.0 1.0 0.00 0.00 0.00 34 1027.7
20260502042216 53 290 1.0 1.0 0.00 0.00 0.00 33 1027.7
20260502041713 54 231 0.0 0.0 0.00 0.00 0.00 32 1027.7
20260502041210 56 239 0.0 0.0 0.00 0.00 0.00 32 1027.8
20260502040707 57 222 0.0 0.0 0.00 0.00 0.00 29 1027.7
20260502040204 57 199 0.0 0.0 0.00 0.00 0.00 30 1027.5
20260502035700 56 296 2.0 2.0 0.00 0.00 0.00 30 1027.7
20260502035157 58 99 1.0 1.0 0.00 0.00 0.00 29 1027.5
20260502034655 57 253 0.0 0.0 0.00 0.00 0.00 29 1027.7
20260502034153 58 248 0.0 0.0 0.00 0.00 0.00 29 1027.5
20260502033650 59 252 2.0 2.0 0.00 0.00 0.00 29 1027.5
20260502033148 60 28 0.0 1.0 0.00 0.00 0.00 27 1027.5
20260502032644 61 302 1.0 1.0 0.00 0.00 0.00 26 1027.4
20260502032140 61 170 1.0 1.0 0.00 0.00 0.00 24 1027.5
20260502031638 60 206 0.0 0.0 0.00 0.00 0.00 25 1027.5
20260502031136 61 218 0.0 0.0 0.00 0.00 0.00 24 1027.3
20260502030635 62 97 2.0 2.0 0.00 0.00 0.00 23 1027.3
20260502030133 63 149 3.0 3.0 0.00 0.00 0.00 22 1027.2
20260502025629 62 154 3.0 3.0 0.00 0.00 0.00 23 1027.2
20260502025127 63 292 0.0 0.0 0.00 0.00 0.00 25 1027.1
20260502024625 65 149 4.0 4.0 0.00 0.00 0.00 21 1027.0
20260502024123 66 158 4.0 4.0 0.00 0.00 0.00 20 1027.1
20260502023621 65 147 6.0 6.0 0.00 0.00 0.00 20 1027.1
20260502023118 66 150 5.0 6.0 0.00 0.00 0.00 19 1027.1
20260502022614 66 150 3.0 3.0 0.00 0.00 0.00 18 1026.9
20260502022112 66 212 1.0 1.0 0.00 0.00 0.00 19 1027.0
20260502021609 67 249 0.0 0.0 0.00 0.00 0.00 19 1027.0
20260502021106 68 257 0.0 0.0 0.00 0.00 0.00 19 1027.1
20260502020603 68 265 1.0 1.0 0.00 0.00 0.00 18 1027.1
20260502020100 69 269 0.0 0.0 0.00 0.00 0.00 18 1027.2
20260502015558 69 252 0.0 0.0 0.00 0.00 0.00 18 1026.9
20260502015054 69 245 0.0 0.0 0.00 0.00 0.00 17 1027.0
20260502014551 69 241 0.0 0.0 0.00 0.00 0.00 17 1027.0
20260502014048 70 236 0.0 0.0 0.00 0.00 0.00 16 1026.9
20260502013543 70 249 0.0 0.0 0.00 0.00 0.00 16 1026.9
20260502013040 69 275 1.0 1.0 0.00 0.00 0.00 16 1026.9
20260502012537 70 302 1.0 1.0 0.00 0.00 0.00 16 1026.9
20260502012035 70 248 0.0 0.0 0.00 0.00 0.00 16 1026.9
20260502011532 70 247 0.0 0.0 0.00 0.00 0.00 16 1026.8
20260502011028 70 293 3.0 3.0 0.00 0.00 0.00 17 1026.9
20260502010526 72 247 0.0 1.0 0.00 0.00 0.00 16 1026.8
20260502010021 70 254 0.0 1.0 0.00 0.00 0.00 18 1026.6
20260502005520 70 170 0.0 0.0 0.00 0.00 0.00 16 1027.0
20260502005017 71 277 0.0 1.0 0.00 0.00 0.00 17 1026.9
20260502004512 71 273 2.0 3.0 0.00 0.00 0.00 18 1026.9
20260502004009 71 354 4.0 4.0 0.00 0.00 0.00 19 1027.1
20260502003507 71 252 1.0 2.0 0.00 0.00 0.00 19 1026.9
20260502003004 71 34 2.0 3.0 0.00 0.00 0.00 17 1027.1
20260502002500 71 253 2.0 3.0 0.00 0.00 0.00 17 1026.8
20260502001958 71 275 4.0 6.0 0.00 0.00 0.00 17 1027.0
20260502001455 71 279 1.0 1.0 0.00 0.00 0.00 17 1026.9
20260502000953 71 312 2.0 2.0 0.00 0.00 0.00 16 1027.1
20260502000454 71 272 6.0 7.0 0.00 0.00 0.00 16 1027.2
20260501235947 71 281 4.0 4.0 0.00 0.00 0.00 16 1027.0
20260501235443 71 238 1.0 2.0 0.00 0.00 0.00 17 1027.0
20260501234938 70 264 6.0 7.0 0.00 0.00 0.00 17 1027.2
20260501234435 71 298 2.0 2.0 0.00 0.00 0.00 17 1027.1
20260501233934 71 295 2.0 2.0 0.00 0.00 0.00 17 1027.2
20260501233431 70 255 0.0 0.0 0.00 0.00 0.00 20 1027.2
20260501232927 71 341 2.0 2.0 0.00 0.00 0.00 18 1027.3
20260501232424 71 282 0.0 0.0 0.00 0.00 0.00 20 1027.3
20260501231921 71 272 1.0 1.0 0.00 0.00 0.00 15 1027.3
20260501231420 71 271 1.0 2.0 0.00 0.00 0.00 16 1027.2
20260501230917 71 272 0.0 1.0 0.00 0.00 0.00 17 1027.3
20260501230416 71 117 3.0 3.0 0.00 0.00 0.00 17 1027.4
20260501225913 71 259 1.0 1.0 0.00 0.00 0.00 22 1027.5
20260501225410 70 8 4.0 4.0 0.00 0.00 0.00 21 1027.3
20260501224906 70 5 4.0 8.0 0.00 0.00 0.00 21 1027.5
20260501224404 70 250 2.0 4.0 0.00 0.00 0.00 21 1027.5
20260501223900 71 262 3.0 4.0 0.00 0.00 0.00 21 1027.4
20260501223356 71 359 1.0 2.0 0.00 0.00 0.00 20 1027.5
20260501222852 72 321 5.0 7.0 0.00 0.00 0.00 20 1027.4
20260501222350 71 246 0.0 0.0 0.00 0.00 0.00 19 1027.7
20260501221846 72 18 4.0 4.0 0.00 0.00 0.00 21 1027.7
20260501221343 70 239 4.0 4.0 0.00 0.00 0.00 21 1027.8
20260501220842 70 20 5.0 8.0 0.00 0.00 0.00 18 1027.8
20260501220339 71 274 3.0 4.0 0.00 0.00 0.00 20 1027.9
20260501215835 70 268 2.0 2.0 0.00 0.00 0.00 18 1027.9
20260501215331 69 264 4.0 4.0 0.00 0.00 0.00 18 1027.9
20260501214827 69 313 7.0 8.0 0.00 0.00 0.00 19 1028.2
20260501214322 71 302 8.0 11.0 0.00 0.00 0.00 22 1028.0
20260501213819 70 270 2.0 3.0 0.00 0.00 0.00 19 1028.1
20260501213315 68 238 1.0 1.0 0.00 0.00 0.00 22 1028.2
20260501212811 69 305 6.0 7.0 0.00 0.00 0.00 23 1028.6
20260501212308 70 234 1.0 2.0 0.00 0.00 0.00 21 1028.2
20260501211805 69 4 2.0 2.0 0.00 0.00 0.00 19 1028.2
20260501211302 68 303 6.0 8.0 0.00 0.00 0.00 22 1028.5
20260501210759 68 8 3.0 3.0 0.00 0.00 0.00 19 1028.5
20260501210255 70 309 6.0 8.0 0.00 0.00 0.00 21 1028.6
20260501205751 69 264 3.0 4.0 0.00 0.00 0.00 21 1028.6
20260501205249 69 107 3.0 3.0 0.00 0.00 0.00 21 1028.3
20260501204746 69 333 3.0 3.0 0.00 0.00 0.00 22 1028.5
20260501204243 68 16 3.0 4.0 0.00 0.00 0.00 23 1028.5
20260501203739 69 310 2.0 3.0 0.00 0.00 0.00 21 1028.5
20260501203236 68 268 1.0 1.0 0.00 0.00 0.00 20 1028.8
20260501202733 67 217 2.0 3.0 0.00 0.00 0.00 22 1028.6
20260501202230 68 229 3.0 4.0 0.00 0.00 0.00 22 1028.7
20260501201727 68 326 6.0 6.0 0.00 0.00 0.00 24 1028.7
20260501201224 68 24 3.0 4.0 0.00 0.00 0.00 20 1028.6
20260501200720 67 307 9.0 10.0 0.00 0.00 0.00 20 1028.8
20260501200218 67 268 8.0 10.0 0.00 0.00 0.00 20 1028.7
20260501195715 67 204 2.0 3.0 0.00 0.00 0.00 28 1028.8
20260501195211 65 284 3.0 4.0 0.00 0.00 0.00 24 1028.9
20260501194707 67 222 10.0 11.0 0.00 0.00 0.00 21 1028.8
20260501194202 67 207 1.0 1.0 0.00 0.00 0.00 26 1029.0
20260501193659 66 323 3.0 4.0 0.00 0.00 0.00 22 1029.1
20260501193158 65 296 5.0 6.0 0.00 0.00 0.00 22 1029.0
20260501192655 66 254 6.0 7.0 0.00 0.00 0.00 21 1029.1
20260501192152 66 261 6.0 7.0 0.00 0.00 0.00 23 1029.0
20260501191649 66 302 6.0 7.0 0.00 0.00 0.00 21 1029.2
20260501191147 66 269 6.0 9.0 0.00 0.00 0.00 24 1029.1
20260501190643 65 300 5.0 6.0 0.00 0.00 0.00 21 1029.1
20260501190138 64 259 6.0 6.0 0.00 0.00 0.00 24 1029.2
20260501185634 64 294 10.0 10.0 0.00 0.00 0.00 23 1029.2
20260501185130 65 266 8.0 10.0 0.00 0.00 0.00 24 1029.2
20260501184627 64 317 6.0 7.0 0.00 0.00 0.00 23 1029.2
20260501184121 64 283 5.0 7.0 0.00 0.00 0.00 26 1029.6
20260501183618 64 209 13.0 15.0 0.00 0.00 0.00 24 1029.2
20260501183115 64 232 5.0 6.0 0.00 0.00 0.00 24 1029.4
20260501182611 64 298 6.0 9.0 0.00 0.00 0.00 26 1029.5
20260501182108 63 208 5.0 7.0 0.00 0.00 0.00 25 1029.6
20260501181606 65 243 12.0 13.0 0.00 0.00 0.00 26 1029.6
20260501181102 65 25 2.0 2.0 0.00 0.00 0.00 26 1029.6
20260501180600 64 295 5.0 7.0 0.00 0.00 0.00 25 1029.5
20260501180056 64 286 3.0 4.0 0.00 0.00 0.00 27 1029.7
20260501175553 64 266 6.0 8.0 0.00 0.00 0.00 28 1029.5
20260501175050 64 287 4.0 6.0 0.00 0.00 0.00 27 1029.8
20260501174547 64 324 3.0 3.0 0.00 0.00 0.00 28 1029.7
20260501174044 64 314 10.0 11.0 0.00 0.00 0.00 26 1029.7
20260501173541 63 330 4.0 6.0 0.00 0.00 0.00 27 1029.7
20260501173038 63 248 7.0 8.0 0.00 0.00 0.00 27 1029.7
20260501172533 63 260 7.0 8.0 0.00 0.00 0.00 27 1029.9
20260501172029 63 296 2.0 2.0 0.00 0.00 0.00 26 1029.8
20260501171526 62 276 3.0 4.0 0.00 0.00 0.00 27 1029.9
20260501171022 62 297 7.0 8.0 0.00 0.00 0.00 29 1029.8
20260501170519 62 284 2.0 3.0 0.00 0.00 0.00 28 1029.7
20260501170016 63 285 9.0 11.0 0.00 0.00 0.00 27 1029.9